User: anonymous   Login
Location: Caltech
(34.1382°N, 118.1253°W)
Time: 16:24:43
(UTC-08:00)
Language:

Cosmos 2322 - Orbit

View from above orbital plane
View from above orbital plane
View from above satellite
View from above satellite

Ground track
Ground track

The orbit data is extracted from the following two-line orbital elements,

1 23704U 95058A   17022.16862549  .00000036  00000-0  44762-4 0  9992
2 23704  70.9845 349.8432 0010822 304.8510  55.1594 14.13354168 95209
Epoch (UTC): 22 January 2017 04:02:49
Eccentricity: 0.0010822
inclination: 70.9845°
perigee height: 840 km
apogee height: 856 km
right ascension of ascending node: 349.8432°
argument of perigee: 304.8510°
revolutions per day: 14.13354168
mean anomaly at epoch: 55.1594°
orbit number at epoch: 9520

The dashed part of the orbit path shows where the satellite is in the earth's shadow,  

DLR